STARLINK-1451 (45668 NORAD) Tracking and Keplerian Element Data

This shows tracking and keplerian element data for the satellite.

Feedback or suggestion? Click here.




ElementValue
Catalog45668
NameSTARLINK-1451
Epoch Orbit655
Epoch Day192.16668981
Epoch Year2020
RAAN353.7651
Inclination53.0029
Eccentricity0.0001302
Argument of Perigee78.4082
Mean Anonmoly166.5947
Mean Motion15.34099902
Decay Rate-0.01074882
L11 45668U 20035M 20192.16668981 -.01074882 00000-0 -35014-1 0 9994
L22 45668 53.0029 353.7651 0001302 78.4082 166.5947 15.34099902 6551

Live tracking and technical data element details for STARLINK-1451 (NORAD 45668). STARLINK-1451 can be tracked NOW for your location showing map with azimuth and elevation plus other details from your city location.

Track the satellite on the map from your city or location and see movement details for azimuth, elevation, latitude, longitude, range, height, and movement on the map or in text.







IsCatalogInMostPopularTable: catalog: 45668, numindb: 5
Update: records affected: 1



GetName: 45668 STARLINK-1451

Hit Count: updated at: Fri, 10 Jul 2020 16:09:58 GMT